User: anonymous   Login
Location: Bambrugge
(50.9212°N, 3.9299°E)
Time: 16:48:38
(UTC+00:00)
Language:

CZ-6A DEB - Orbit

View from above orbital plane
View from above orbital plane
View from above satellite
View from above satellite

Ground track
Ground track

The orbit data is extracted from the following two-line orbital elements,

1 54518U 22151JW  24280.60536446  .00006152  00000-0  22950-2 0  9998
2 54518  98.8345 303.0650 0130886 119.2998 242.1335 14.27627300 98744
Epoch (UTC): 06 October 2024 14:31:43
Eccentricity: 0.0130886
inclination: 98.8345°
perigee height: 706 km
apogee height: 893 km
right ascension of ascending node: 303.0650°
argument of perigee: 119.2998°
revolutions per day: 14.27627300
mean anomaly at epoch: 242.1335°
orbit number at epoch: 9874

The dashed part of the orbit path shows where the satellite is in the earth's shadow,  

DLR